Погода в Тахиаташе

Узбекистан     42°20′01″N   59°34′31″E
темп.,
°C
ветер,
м/с
пор.,
м/с
влажн.,
%
обл.,
%
осадки,
мм/ч
давл.,
гПа
погр.,
м
6 мая, чт
чт623:00+23юз61033100 0.0 1010221
02:00+21зюз4936100 0.0 1010187
05:00+20юз363871 0.0 1011113
08:00+21сз334577 0.1 1012186
11:00+24з114363 0.3 1013575
14:00+29зюз542961 0.0 10122212
17:00+29юз352719 0.0 10112408
20:00+27зюз673192 0.3 10111177
7 мая, пт
пт723:00+23сз3446100 0.3 1012292
02:00+22юз4746100 0.1 1012442
05:00+20зюз5750100 0.6 1013373
08:00+19юз795324 0.6 1015733
11:00+23юз563912 0.9 10151182
14:00+26зюз67310 0.1 10141887
17:00+27з66251 0.1 10142039
20:00+24з45236 0.0 1014170
8 мая, сб
сб823:00+21сз363157 0.0 1015130
02:00+18с584749 0.0 1015253
05:00+16ссз465848 0.0 1017158
08:00+17сз455393 0.0 1018410
11:00+20сз6643100 0.0 1018926
14:00+20зсз4441100 0.0 1018932
17:00+22сз4436100 0.0 10171297
20:00+20з113940 0.0 101713
9 мая, вс
вс923:00+19зюз22417 0.0 101719
02:00+17зсз33462 0.0 101629
05:00+16ссз34500 0.0 101645
08:00+19с4642100 0.0 1017285
11:00+23ссв5531100 0.0 10161435
14:00+26св4419100 0.0 10151955
17:00+26св5421100 0.0 10142018
20:00+22св7833100 0.0 1015539
10 мая, пн
пн1023:00+19ссв6944100 0.0 1015343
02:00+17ссв4858100 0.0 1015259
05:00+16ссв4860100 0.0 1015257
08:00+19св6104677 0.0 1017532
11:00+24св67250 0.0 10171498
14:00+27св55190 0.0 10151979
17:00+28св65172 0.0 10152199
20:00+24с810250 0.0 1016508